This is the latest recevied weather packets stored in our database for station/object LX0APE-4. If no packets are shown the sender has not sent any weather packets the latest 10 day(s).
| Time | Temp. | Humidity | Pressure | Rain* | Wind** | Luminosity | Snow |
|---|---|---|---|---|---|---|---|
| 1777033038 | 22.22° C | 25% | 5018.4 hPa | 0 mm | - | - | - |
| 1777032738 | 22.22° C | 24% | 5018.4 hPa | 0 mm | - | - | - |
| 1777032438 | 21.67° C | 25% | 5018.4 hPa | 0 mm | - | - | - |
| 1777032138 | 21.67° C | 24% | 5018.5 hPa | 0 mm | - | - | - |
| 1777031838 | 21.11° C | 25% | 5018.4 hPa | 0 mm | - | - | - |
| 1777031538 | 21.11° C | 25% | 5018.6 hPa | 0 mm | - | - | - |
| 1777031238 | 21.11° C | 24% | 5018.6 hPa | 0 mm | - | - | - |
| 1777030938 | 21.11° C | 26% | 5018.5 hPa | 0 mm | - | - | - |
| 1777030638 | 20.56° C | 27% | 5018.6 hPa | 0 mm | - | - | - |
| 1777030338 | 20° C | 30% | 5018.6 hPa | 0 mm | - | - | - |
| 1777030038 | 19.44° C | 29% | 5018.6 hPa | 0 mm | - | - | - |
| 1777029742 | 19.44° C | 28% | 5018.7 hPa | 0 mm | - | - | - |
| 1777029738 | 19.44° C | 28% | 5018.7 hPa | 0 mm | - | - | - |
| 1777029438 | 18.89° C | 28% | 5018.6 hPa | 0 mm | - | - | - |
| 1777029138 | 18.89° C | 30% | 5018.7 hPa | 0 mm | - | - | - |
| 1777028838 | 18.33° C | 30% | 5018.8 hPa | 0 mm | - | - | - |
| 1777028538 | 17.78° C | 30% | 5018.8 hPa | 0 mm | - | - | - |
| 1777028238 | 17.22° C | 29% | 5018.9 hPa | 0 mm | - | - | - |
| 1777027938 | 17.22° C | 28% | 5018.8 hPa | 0 mm | - | - | - |
| 1777027638 | 17.22° C | 28% | 5019 hPa | 0 mm | - | - | - |
| 1777027338 | 16.67° C | 28% | 5019 hPa | 0 mm | - | - | - |
| 1777027038 | 16.67° C | 27% | 5019 hPa | 0 mm | - | - | - |
| 1777026738 | 16.11° C | 27% | 5019 hPa | 0 mm | - | - | - |
| 1777026438 | 16.11° C | 27% | 5019.1 hPa | 0 mm | - | - | - |
| 1777026138 | 15.56° C | 30% | 5019.2 hPa | 0 mm | - | - | - |
* Rain latest hour (hover to see other rain measurements)
** Current wind speed in m/s (hover to see current wind gust speed)